Location: Ffald-y-Brenin
(52.0833°N, 4.0000°W)
Time: 15:33:25
(UTC+00:00)

Cosmos 1633 Rocket - Pass Details

Date: 18 February 2020
Orbit: 608 x 622 km, 82.5° (Epoch: 28 March)

Event Time Altitude Azimuth Distance (km) Brightness Sun altitude
Rises 05:58:01 0° 351° (N) 2,889 6.4 -14.2°
Reaches altitude 10° 06:00:16 10° 355° (N) 1,981 5.6 -13.8°
Maximum altitude 06:04:37 61° 76° (ENE) 703 3.6 -13.2°
Drops below altitude 10° 06:08:56 10° 157° (SSE) 1,974 6.0 -12.5°
Sets 06:11:11 0° 161° (SSE) 2,876 6.8 -12.2°
